EW8320 Weather Reports


time (UTC)temp
C
wind
direction
speed
KPH
gust
KPH
rain 1hr
cm
rain 24hr
cm
rain mn
cm
humidity
%
barometer
mb
20260506033317 11 67 0.0 0.0 0.00 0.00 0.00 63 1017.3
20260506032319 11 67 0.0 0.0 0.00 0.00 0.00 60 1017.2
20260506031319 12 292 0.0 0.0 0.00 0.00 0.00 59 1017.1
20260506030319 12 270 0.0 0.0 0.00 0.00 0.00 58 1017.0
20260506030219 12 270 0.0 0.0 0.00 0.00 0.00 57 1017.0
20260506025219 13 337 0.0 0.0 0.00 0.00 0.00 54 1016.8
20260506024219 13 337 0.0 0.0 0.00 0.00 0.00 55 1016.6
20260506022319 16 348 0.0 0.0 0.00 0.00 0.00 43 1016.4
20260506021321 16 45 0.0 0.0 0.00 0.00 0.00 41 1016.3
20260506020320 16 43 0.0 0.0 0.00 0.00 0.00 41 1016.1
20260506020220 16 50 0.0 0.0 0.00 0.00 0.00 41 1016.1
20260506015318 16 48 0.0 0.0 0.00 0.00 0.00 42 1016.1
20260506014322 16 47 0.0 0.0 0.00 0.00 0.00 41 1016.0
20260506013319 16 65 0.0 0.0 0.00 0.00 0.00 40 1016.0
20260506011418 17 47 0.0 0.0 0.00 0.00 0.00 38 1015.9
20260506010419 17 66 0.0 0.0 0.00 0.00 0.00 37 1015.8
20260506004419 17 71 0.0 0.0 0.00 0.00 0.00 36 1015.8
20260506003421 17 73 0.0 0.0 0.00 0.00 0.00 35 1015.6
20260506002518 17 71 0.0 0.0 0.00 0.00 0.00 35 1015.6
20260506001520 17 69 0.0 0.0 0.00 0.00 0.00 36 1015.6
20260505235620 18 67 0.0 0.0 0.00 0.00 0.00 34 1015.5
20260505234719 18 64 0.0 0.0 0.00 0.00 0.00 34 1015.6
20260505233719 17 58 0.0 0.0 0.00 0.00 0.00 34 1015.5
20260505232721 17 63 0.0 0.0 0.00 0.00 0.00 34 1015.7
20260505231721 17 66 0.0 0.0 0.00 0.00 0.00 35 1015.6
20260505230718 17 88 0.0 0.0 0.00 0.00 0.00 34 1015.4
20260505225718 17 62 0.0 0.0 0.00 0.00 0.00 34 1015.5
20260505224818 18 98 0.0 0.0 0.00 0.00 0.00 35 1015.5
20260505223820 18 84 0.0 0.0 0.00 0.00 0.00 34 1015.6
20260505222818 18 54 0.0 0.0 0.00 0.00 0.00 35 1015.6
20260505221818 17 75 0.0 0.0 0.00 0.00 0.00 36 1015.7
20260505220821 17 66 0.0 0.0 0.00 0.00 0.00 35 1015.6
20260505215819 17 88 0.0 0.0 0.00 0.00 0.00 36 1015.6
20260505213917 17 68 0.0 0.0 0.00 0.00 0.00 35 1015.6
20260505213821 17 71 0.0 0.0 0.00 0.00 0.00 34 1015.6
20260505212818 16 135 0.0 0.0 0.00 0.00 0.00 34 1015.6
20260505212722 17 122 0.0 0.0 0.00 0.00 0.00 34 1015.7
20260505211718 17 91 0.0 0.0 0.00 0.00 0.00 34 1015.8
20260505210720 17 57 0.0 0.0 0.00 0.00 0.00 34 1015.7
20260505205719 17 101 0.0 0.0 0.00 0.00 0.00 33 1015.7
20260505203820 18 64 0.0 0.0 0.00 0.00 0.00 34 1016.0
20260505202820 17 112 0.0 0.0 0.00 0.00 0.00 35 1015.9
20260505201820 17 80 0.0 0.0 0.00 0.00 0.00 34 1016.0
20260505195820 17 311 0.0 0.0 0.00 0.00 0.00 34 1016.3
20260505194819 17 97 0.0 0.0 0.00 0.00 0.00 36 1016.4
20260505193836 17 92 0.0 0.0 0.00 0.00 0.00 34 1016.2
20260505192919 17 67 0.0 0.0 0.00 0.00 0.00 35 1016.2
20260505192820 17 84 0.0 0.0 0.00 0.00 0.00 35 1016.3
20260505191919 17 315 0.0 0.0 0.00 0.00 0.00 36 1016.4
20260505190918 17 99 0.0 0.0 0.00 0.00 0.00 36 1016.3
20260505185920 17 118 0.0 0.0 0.00 0.00 0.00 36 1016.3
20260505185018 17 63 0.0 0.0 0.00 0.00 0.00 36 1016.4
20260505184020 16 58 0.0 0.0 0.00 0.00 0.00 36 1016.4
20260505183019 17 83 0.0 0.0 0.00 0.00 0.00 36 1016.5
20260505182035 16 93 0.0 0.0 0.00 0.00 0.00 34 1016.4
20260505181019 18 45 0.0 0.0 0.00 0.00 0.00 35 1016.3
20260505180020 19 144 0.0 0.0 0.00 0.00 0.00 32 1016.4
20260505175919 19 135 0.0 0.0 0.00 0.00 0.00 32 1016.5
20260505174921 19 107 0.0 0.0 0.00 0.00 0.00 33 1016.4
20260505173936 19 360 0.0 0.0 0.00 0.00 0.00 34 1016.4
20260505172918 20 66 0.0 0.0 0.00 0.00 0.00 38 1016.4
20260505171919 19 81 0.0 0.0 0.00 0.00 0.00 42 1016.4
20260505170920 18 46 0.0 0.0 0.00 0.00 0.00 47 1016.3
20260505165921 17 94 0.0 0.0 0.00 0.00 0.00 47 1016.4
20260505162921 17 90 0.0 0.0 0.00 0.00 0.00 49 1016.3
20260505161920 18 106 0.0 0.0 0.00 0.00 0.00 65 1016.3
20260505153017 12 202 0.0 0.0 0.00 0.00 0.00 64 1016.6
20260505152019 11 211 0.0 0.0 0.00 0.00 0.00 67 1016.6
20260505150118 10 217 0.0 0.0 0.00 0.00 0.00 69 1016.5
20260505123420 5 266 0.0 0.0 0.00 0.00 0.00 80 1014.9
20260505122420 5 255 0.0 0.0 0.00 0.00 0.00 80 1014.8
20260505120418 5 275 0.0 0.0 0.00 0.00 0.00 80 1014.7
20260505114419 5 271 0.0 0.0 0.00 0.00 0.00 80 1014.7
20260505113418 5 263 0.0 0.0 0.00 0.00 0.00 80 1014.6
20260505111419 5 265 0.0 0.0 0.00 0.00 0.00 79 1014.6
20260505110517 5 281 0.0 0.0 0.00 0.00 0.00 79 1014.5
20260505101621 6 277 0.0 0.0 0.00 0.00 0.00 76 1014.3
20260505100719 7 249 0.0 0.0 0.00 0.00 0.00 78 1014.3
20260505095720 11 274 0.0 0.0 0.00 0.00 0.00 100 1014.4
20260505094819 11 268 0.0 0.0 0.00 0.00 0.00 100 1014.3
20260505093819 10 260 0.0 0.0 0.00 0.00 0.00 100 1014.4
20260505093718 10 266 0.0 0.0 0.00 0.00 0.00 100 1014.3
20260505092718 12 263 0.0 0.0 0.00 0.00 0.00 100 1014.3
20260505091719 12 263 0.0 0.0 0.00 0.00 0.00 100 1014.2
20260505090725 12 264 0.0 0.0 0.00 0.00 0.00 100 1014.0
20260505085719 12 269 0.0 0.0 0.00 0.00 0.00 100 1014.1
20260505084819 12 262 0.0 0.0 0.00 0.00 0.00 100 1014.1
20260505083818 12 248 0.0 0.0 0.00 0.00 0.00 100 1014.1
20260505083719 12 249 0.0 0.0 0.00 0.00 0.00 100 1014.0
20260505082718 12 246 0.0 0.0 0.00 0.00 0.00 100 1014.0
20260505080719 11 275 0.0 0.0 0.00 0.00 0.00 100 1013.8
20260505074720 11 212 0.0 0.0 0.00 0.00 0.00 100 1013.9
20260505073817 8 202 0.0 0.0 0.00 0.00 0.00 89 1013.9
20260505072818 7 202 0.0 0.0 0.00 0.00 0.00 77 1013.9
20260505071818 7 180 0.0 0.0 0.00 0.00 0.00 76 1013.8
20260505070819 7 202 0.0 0.0 0.00 0.00 0.00 75 1013.8
20260505065831 8 239 0.0 0.0 0.00 0.00 0.00 73 1013.8
20260505064831 8 261 0.0 0.0 0.00 0.00 0.00 73 1013.6
20260505063927 8 292 0.0 0.0 0.00 0.00 0.00 74 1013.4
20260505061929 8 59 0.0 0.0 0.00 0.00 0.00 73 1013.6
20260505060931 8 291 0.0 0.0 0.00 0.00 0.00 73 1013.5
20260505055929 8 360 0.0 0.0 0.00 0.00 0.00 73 1013.5
20260505054929 8 45 0.0 0.0 0.00 0.00 0.00 72 1013.5
20260505053929 8 360 0.0 0.0 0.00 0.00 0.00 71 1013.4
20260505052928 8 247 0.0 0.0 0.00 0.00 0.00 70 1013.5
20260505051932 8 251 0.0 0.0 0.00 0.00 0.00 71 1013.6
20260505050928 9 242 0.0 0.0 0.00 0.00 0.00 69 1013.7
20260505035228 11 180 0.0 0.0 0.00 0.00 0.00 58 1013.6
20260505034232 12 209 0.0 0.0 0.00 0.00 0.00 56 1013.4